CAPE
331 992 1193 1466 1485 1328 1206 1186 1244 1203 1361 1394 1107 1048 1230 878 1008 1037 1136 1386 1328 1022 941 1647 1390 1410 1450 1070 966 1022 1436 1380 1064 1053 1474 1399 1667 1854 1764 1933 1848 1634 1885
632 1163 1383 1555 1421 1363 1149 1346 1131 1341 1248 618 652 763 729 1122 1297 1013 1147 1184 1531 1465 1374 1464 1582 1353 1187 1420 1244 1222 1436 1117 1225 1616 1779 1583 1587 1882 2194 2241 2155 2147 2233
594 1162 1352 1498 1568 1253 1204 1275 1287 1430 786 700 385 600 390 605 1105 1069 1162 1186 1253 1343 1449 1593 1501 1203 1031 1448 1375 1255 1424 1720 1977 1635 2082 1978 1716 2047 2454 2505 2460 2341 2601
652 1108 1315 1533 1459 1518 1075 894 983 854 1060 1055 876 1224 1391 913 432 702 546 906 1554 1458 1180 951 707 849 1629 1224 1236 831 898 1103 1285 1961 1728 1807 1858 2025 2537 2502 2579 2488 2581
657 984 1375 1505 1417 1422 1433 1308 1011 806 922 757 799 880 1165 1298 1435 902 809 845 534 602 617 973 1053 1365 955 683 785 739 773 1115 1252 1325 1035 1441 1985 2196 2490 2512 2599 2646 2628
529 1051 1619 1637 1505 1233 1014 1091 1162 999 977 1108 1225 1267 1304 1221 1317 1297 1163 1386 1485 1188 1413 1268 1021 870 634 583 346 439 638 1024 1063 941 866 1276 1562 2008 2172 2121 2211 2467 2548
542 1270 1445 1530 1339 1168 1077 963 861 788 514 1139 1028 1024 1150 1325 1326 1293 1205 1371 1250 1217 1145 810 1058 890 657 523 660 627 697 908 1113 827 827 847 1286 2460 2216 2326 2633 2555 2666
630 1030 1449 1400 1341 1088 819 902 785 162 181 784 1100 1036 880 770 976 1135 985 588 939 1226 1098 922 848 687 679 716 798 576 945 1077 925 868 964 789 1358 2116 2435 2305 2191 2231 2296
699 926 1203 1062 1049 894 368 437 307 24 6 409 666 869 1054 1330 650 415 477 538 637 1028 1093 927 746 765 566 773 458 416 841 883 649 543 964 1129 1473 1882 1968 1793 1584 1677 1816
779 661 653 800 949 615 429 391 58 35 33 240 900 831 607 857 1294 1218 606 526 481 551 766 935 873 672 498 730 298 399 730 659 53 183 533 599 1292 2027 2164 2046 1901 1946 1955
486 333 375 463 368 251 114 416 290 109 86 307 494 924 596 283 465 725 791 769 874 809 745 738 816 809 799 441 10 434 146 164 327 148 160 586 883 1666 1885 1876 1896 1891 1862
212 156 232 83 46 79 54 97 23 133 46 24 91 449 348 242 333 565 955 1280 1230 1319 1743 1557 761 799 1063 306 140 118 234 78 180 375 386 481 742 1465 1874 1964 2002 1870 1860
102 26 60 7 0 0 0 19 36 45 4 0 0 0 121 249 94 142 184 817 245 212 358 166 106 0 14 49 27 145 231 118 81 405 363 599 775 1436 2047 1928 1832 1996 1871
127 79 15 0 0 0 0 6 14 9 1 0 0 4 91 145 253 139 177 42 0 0 26 6 50 46 58 4 2 65 427 346 150 193 207 552 769 1300 1535 1901 1508 1373 1646
148 128 0 0 0 0 0 0 0 0 0 49 0 32 90 259 173 155 210 108 21 0 0 0 6 40 70 82 40 204 416 344 271 221 679 632 818 1030 1565 1583 1574 1692 1777
132 148 0 2 0 0 0 0 0 0 0 0 0 0 90 142 211 173 109 127 52 5 0 13 0 0 25 23 175 420 597 367 475 481 484 927 1026 1231 1595 1661 1826 1569 1593
9 30 44 0 0 0 0 0 0 0 30 51 49 0 132 352 291 383 223 239 145 1 28 13 44 21 39 292 568 464 440 320 623 259 35 488 727 1312 1314 1404 1104 1212 1126
0 0 54 2 0 0 0 49 49 35 21 87 179 267 201 427 678 670 655 416 364 191 142 120 95 31 201 62 192 171 173 393 560 454 356 225 110 169 944 1129 416 875 1108
12 2 39 33 32 37 10 37 53 0 10 74 124 412 539 741 441 388 606 664 368 299 431 122 127 97 467 239 48 30 2 144 357 217 607 90 58 0 190 768 311 645 1057
34 25 51 48 6 0 1 9 385 265 586 538 159 447 476 431 336 189 283 411 693 491 257 161 220 292 245 298 89 0 0 0 273 223 65 0 0 28 326 615 614 690 830
43 31 52 41 0 12 188 252 103 168 209 16 245 644 522 429 615 434 206 726 818 384 436 557 883 235 135 0 19 0 0 0 109 25 13 26 155 339 462 95 947 831 661
43 10 13 8 1 89 67 16 46 440 330 270 501 825 596 704 555 335 724 815 1009 757 595 551 403 0 2 39 36 6 0 0 0 0 199 288 325 700 767 757 838 638 492
10 27 5 8 0 16 8 0 66 602 295 173 304 436 909 938 894 1063 986 837 928 409 217 191 707 109 30 143 78 110 47 0 0 0 5 320 424 544 701 838 760 617 528
0 29 1 0 0 4 0 0 0 207 73 91 47 426 589 669 704 946 1150 958 765 508 106 174 625 460 185 201 131 9 40 46 0 16 156 495 362 337 480 763 788 574 554
0 5 0 0 0 0 0 0 59 400 200 0 21 18 162 443 769 1431 1040 666 635 275 577 57 34 394 253 393 179 236 189 5 0 117 101 411 517 464 431 598 723 699 573
0 0 25 0 0 0 0 0 99 700 557 177 47 419 407 785 906 1203 1017 997 543 202 283 190 569 793 732 577 683 648 531 60 0 64 219 219 262 379 562 485 476 478 354
CIN
-111 -7 -1 0 0 -1 0 0 0 0 0 0 -2 -5 -4 -18 -15 -16 -8 -1 -2 -9 -6 0 -1 -1 -1 -9 -19 -26 -12 -13 -38 -43 -14 -3 -2 -1 0 0 -4 -10 -8
-83 -1 -1 0 0 0 -2 0 0 0 0 -25 -19 -14 -18 -2 0 -6 -4 -1 0 0 -1 0 0 -2 -3 0 -6 -10 -5 -25 -24 -13 0 -4 -9 -5 0 0 -1 -2 -2
-99 -8 -5 -1 0 0 -1 0 0 0 -5 -17 -42 -29 -42 -18 0 -2 0 0 0 0 0 0 0 0 -2 0 -3 -8 -3 -1 -1 0 0 -2 -9 -5 0 0 0 0 0
-103 -38 -20 -1 -1 0 -3 -2 -1 -1 0 0 -7 -1 0 -2 -24 -8 -19 -4 0 0 0 0 -1 -1 0 -4 -5 -16 -14 -15 -12 0 -10 -8 0 -5 0 0 0 0 0
-90 -57 -20 -2 0 0 0 0 -3 -9 -3 -4 -5 -7 0 0 0 -5 -2 -3 -18 -7 -7 0 0 0 -6 -10 -14 -12 -10 -9 -8 -9 -30 -20 -1 0 0 0 0 0 0
-129 -54 -4 0 0 -2 -8 -6 0 0 0 0 0 0 0 0 0 0 0 0 0 0 0 0 -3 -5 -10 -13 -19 -25 -10 -4 -12 -40 -46 -21 -16 -1 0 -1 -4 0 0
-106 -37 -21 -1 -1 -4 -1 -2 -1 0 -1 0 0 0 0 0 0 0 0 0 0 0 -1 -3 0 -3 -13 -23 -10 -11 -6 -7 -12 -33 -48 -61 -31 0 0 0 0 0 0
-83 -35 -1 0 -7 -18 -14 0 0 -32 -17 -3 0 0 0 -13 -4 -1 0 -10 0 0 0 0 -2 -10 -16 -23 -16 -12 -7 -10 -39 -61 -49 -52 -30 -5 0 0 -4 -5 0
-67 -51 -16 -27 -24 -38 -60 -19 -4 -63 -85 -11 -3 -9 0 -11 -10 -12 -42 -30 -16 0 0 -1 -19 -21 -39 -20 -23 -18 -20 -33 -48 -96 -68 -47 -20 -8 -1 -16 -36 -24 -13
-39 -46 -59 -60 -26 -49 -27 -7 -30 -27 -42 -24 -6 -6 -11 -3 0 0 -30 -28 -32 -30 -14 -12 -21 -20 -28 -26 -23 -24 -18 -42 -146 -131 -98 -85 -35 -3 0 -3 -17 -7 -1
-38 -80 -97 -80 -77 -68 -54 0 -8 -34 -41 -33 -22 -7 -23 -60 -31 -19 -9 -16 -5 -16 -31 -30 -20 -20 -9 -12 -3 -23 -50 -97 -64 -117 -151 -79 -59 -16 -2 -7 -7 -7 0
-88 -138 -135 -144 -135 -88 -35 -51 -75 -144 -81 -103 -81 -41 -42 -56 -45 -23 -27 -7 -8 -23 -2 -15 -52 -46 -29 -21 -19 -28 -48 -100 -98 -89 -93 -94 -73 -23 -4 -5 -1 -2 0
-128 -229 -177 -153 -16 0 -1 -82 -83 -91 -183 0 0 0 -109 -59 -66 -80 -114 -52 -104 -105 -117 -143 -196 0 -81 -133 -80 -24 -39 -72 -98 -81 -82 -66 -62 -19 0 -6 -8 -1 -1
-82 -115 -159 0 0 0 0 -116 -99 -135 -13 0 0 -11 -76 -58 -68 -89 -104 -191 0 0 -174 -129 -210 -229 -172 -76 -17 -91 -52 -54 -78 -101 -134 -43 -33 -10 -13 -5 -21 -19 0
-58 -66 -1 0 0 0 0 0 0 0 0 -80 0 -89 -88 -60 -91 -106 -105 -191 -195 0 0 0 -166 -200 -184 -149 -148 -98 -44 -40 -83 -120 -81 -52 -40 -21 -17 -24 -23 -5 0
-54 -48 0 -48 0 0 0 0 0 0 0 0 0 0 -78 -58 -63 -120 -164 -165 -57 -52 0 -154 -23 0 -248 -254 -133 -95 -49 -60 -82 -90 -76 -47 -30 -19 -15 -15 -5 -3 0
-55 -55 -45 0 0 0 0 0 0 0 -93 -88 -80 0 -77 -43 -44 -45 -66 -65 -66 -14 -211 -206 -180 -177 -166 -53 -72 -77 -54 -67 -66 -102 -94 -80 -72 -8 -10 -10 -27 -21 -13
0 0 -43 -73 0 -5 0 -108 -111 -108 -95 -107 -70 -50 -52 -47 -38 -27 -27 -46 -93 -111 -169 -184 -139 -193 -90 -69 -81 -93 -94 -67 -66 -111 -94 -98 -178 -163 -36 -12 -51 -41 -19
-88 -49 -54 -52 -79 -90 -91 -92 -85 0 -53 -63 -71 -48 -37 -23 -27 -32 -35 -41 -72 -70 -96 -159 -142 -175 -75 -88 -181 -149 -51 -112 -95 -144 -88 -135 -205 0 -118 -40 -46 -47 -24
-65 -70 -63 -61 -53 0 -3 -58 -46 -67 -61 -62 -55 -50 -41 -44 -40 -45 -40 -38 -48 -52 -64 -115 -124 -117 -151 -127 -145 0 0 0 -125 -119 -166 0 0 -55 -86 -53 -54 -49 -26
-50 -71 -60 -53 0 -96 -41 -27 -57 -65 -68 -122 -57 -34 -35 -50 -44 -38 -59 -36 -36 -72 -48 -59 -63 -114 -148 -1 -167 0 0 0 -159 -137 -110 -203 -97 -71 -74 -117 -48 -41 -40
-94 -90 -89 -57 -14 -103 -88 -83 -68 -35 -50 -60 -59 -42 -29 -38 -40 -48 -41 -39 -35 -46 -52 -53 -72 0 -176 -251 -134 -35 0 0 0 0 -132 -105 -64 -69 -63 -53 -46 -52 -64
-166 -112 -101 -95 0 -61 -72 0 -85 -54 -66 -55 -55 -37 -31 -31 -23 -21 -30 -34 -35 -69 -86 -104 -63 -114 -51 -175 -200 -124 -51 0 0 0 -44 -67 -65 -82 -44 -14 -47 -65 -65
0 -184 -29 0 0 -66 0 0 0 -57 -95 -88 -79 -49 -44 -37 -26 -20 -24 -30 -38 -64 -64 -104 -89 -72 -102 -80 -131 -205 -202 -128 0 -35 -64 -42 -73 -48 -37 -39 -52 -75 -76
0 -175 0 0 0 0 0 0 -52 -39 -76 -4 -88 -141 -57 -45 -31 -22 -30 -47 -52 -83 -53 -156 -160 -73 -111 -84 -94 -93 -123 -44 0 -70 -35 -17 -35 -44 -51 -42 -63 -77 -87
0 0 -210 0 0 0 0 0 -96 -28 -37 -89 -139 -44 -55 -42 -30 -23 -26 -29 -69 -98 -86 -100 -83 -66 -68 -53 -46 -47 -70 -37 0 -31 -47 -42 -22 -33 -37 -45 -65 -72 -93
Wind_Speed
9 9 8 10 13 16 17 18 19 20 21 20 20 20 21 20 18 17 18 19 20 20 19 18 20 20 20 20 20 19 19 18 19 20 20 23 23 24 24 24 26 27 25
11 7 9 9 13 14 16 17 18 19 20 19 19 19 19 17 17 16 19 18 19 18 18 19 20 20 19 20 19 19 19 18 17 18 21 21 24 25 24 24 26 26 23
11 12 5 5 12 13 14 15 16 15 16 16 17 18 18 17 17 18 18 18 19 19 18 19 20 19 19 20 19 19 19 20 19 21 19 18 21 25 23 23 23 24 23
13 14 4 9 9 11 12 15 17 14 13 13 15 16 16 17 18 17 18 19 19 18 19 20 19 19 19 19 19 19 18 19 18 17 19 18 20 23 23 22 22 23 22
9 9 14 16 11 5 9 16 17 15 10 12 13 13 14 16 16 17 19 20 19 20 20 19 19 19 19 18 18 18 17 18 18 18 20 19 19 21 20 20 20 22 22
13 15 10 19 14 3 9 13 12 16 12 9 9 11 13 13 12 16 19 18 17 19 18 18 19 18 17 17 16 15 16 16 17 19 18 17 18 20 19 19 18 19 22
13 14 10 12 15 10 9 11 11 11 13 9 8 10 9 11 15 16 17 16 18 18 18 19 19 19 17 17 17 14 16 18 18 19 17 16 19 19 20 20 19 22 23
13 13 4 5 9 9 9 10 11 12 11 10 7 7 8 9 12 15 15 16 17 18 19 18 18 17 17 16 16 19 16 18 18 20 17 18 19 19 21 21 23 23 23
10 21 4 5 6 8 9 11 13 14 12 7 7 6 8 7 13 14 15 17 18 19 19 19 18 17 17 16 19 20 19 19 19 21 19 19 19 19 20 21 22 21 21
20 15 4 4 4 6 6 11 15 19 23 19 6 9 8 7 11 14 16 15 19 18 17 16 15 15 16 16 17 18 18 20 19 22 21 19 18 18 19 19 19 18 18
13 16 11 3 5 5 6 10 10 15 15 7 12 10 15 9 9 10 10 18 17 16 15 15 13 12 12 15 15 17 18 19 21 21 19 17 18 20 19 19 19 16 16
20 21 21 10 6 5 6 8 8 10 12 11 14 17 18 13 13 12 14 17 16 14 13 14 12 10 11 12 15 18 20 22 22 19 18 17 18 19 19 18 19 18 16
23 23 25 22 12 6 10 12 15 16 15 15 18 18 17 15 12 13 14 4 7 13 15 12 15 10 10 12 15 16 22 23 22 19 17 18 17 18 18 16 15 17 16
25 24 23 24 24 24 18 16 17 24 20 19 20 19 19 17 14 11 12 17 12 12 7 20 10 10 9 13 14 17 20 22 22 19 17 18 18 18 17 16 12 11 17
23 25 24 25 26 27 26 27 27 25 22 21 20 19 19 18 17 15 5 16 16 14 18 18 16 14 10 10 14 17 18 21 21 19 18 19 18 17 15 16 15 15 17
22 26 28 28 27 27 29 28 27 25 22 21 21 20 18 18 16 18 17 15 12 12 16 12 15 13 14 11 14 17 19 19 19 19 19 18 18 16 16 16 16 16 17
22 22 28 29 29 28 30 25 26 24 22 21 21 20 18 21 11 15 18 16 13 12 13 14 12 9 12 12 13 15 17 19 15 18 18 16 12 15 17 17 16 16 16
21 24 31 31 30 29 29 25 24 23 23 18 19 21 21 18 10 10 17 15 14 13 13 12 14 11 14 13 15 17 17 20 18 15 13 17 15 16 18 18 17 16 15
17 20 21 31 32 29 29 27 24 21 21 21 20 18 10 14 10 17 16 14 14 13 13 13 15 12 17 17 18 19 20 19 18 15 17 22 18 18 19 18 17 16 15
20 17 15 24 32 31 26 27 23 24 23 23 23 22 11 17 10 10 10 17 12 12 13 14 13 15 18 17 17 18 18 19 18 19 18 17 18 18 19 18 17 16 15
20 19 25 26 28 5 12 22 23 22 20 16 20 9 11 15 11 10 10 19 13 13 13 13 13 16 17 17 17 16 18 16 17 17 16 17 19 18 18 19 18 17 16
24 25 28 28 29 26 30 24 18 19 21 17 15 6 11 17 13 13 14 16 16 16 17 17 14 15 16 9 18 19 19 13 16 15 16 19 19 18 19 18 20 19 18
22 25 25 28 30 31 31 25 22 19 17 16 15 10 10 12 13 14 15 11 11 13 18 16 15 15 17 6 17 18 17 15 18 16 16 19 21 19 18 20 20 19 18
21 23 26 26 27 28 29 30 27 24 24 20 16 7 8 8 18 14 11 11 12 12 12 11 7 16 18 18 19 15 13 17 19 18 16 18 19 20 20 20 20 19 19
22 21 22 27 26 28 27 28 30 28 28 24 22 25 25 22 18 12 10 11 11 11 17 10 18 17 15 17 14 15 16 17 16 17 19 19 20 20 20 19 19 19 20
20 21 21 22 27 27 26 26 27 29 28 25 23 24 16 17 9 8 10 11 12 14 18 18 18 17 17 16 15 15 16 17 17 17 17 18 18 18 18 18 18 18 19
Wind_Direction
96 88 71 68 71 77 76 74 75 78 79 75 75 75 80 82 77 67 67 74 83 88 77 64 75 84 81 84 85 84 81 79 86 95 95 108 111 120 124 124 128 128 119
99 85 83 71 77 75 77 76 78 80 78 76 73 74 77 70 67 63 76 75 82 76 67 66 74 74 72 77 79 81 83 78 78 80 95 96 110 115 111 109 118 116 106
99 96 76 66 81 78 76 76 77 69 70 65 66 68 68 67 67 76 70 74 78 79 68 71 77 70 73 79 80 81 81 88 87 90 89 78 92 114 108 105 104 109 107
102 99 72 81 78 78 73 80 83 67 54 49 60 59 61 64 70 68 75 83 83 72 78 82 74 77 77 77 79 82 81 89 85 79 87 83 90 106 103 101 103 108 107
95 91 95 97 82 53 61 88 87 79 45 47 53 53 56 65 66 74 78 90 82 81 84 75 76 80 76 72 79 85 85 90 103 105 98 90 90 103 98 98 103 110 114
101 104 89 106 92 21 64 83 67 82 58 26 30 44 55 53 48 67 78 75 65 79 62 72 79 75 63 68 73 77 81 74 72 92 88 85 88 101 103 103 103 109 122
107 103 93 91 94 72 65 73 69 62 69 30 24 37 35 48 64 66 69 62 69 69 71 74 72 70 55 71 77 61 77 88 76 96 93 84 104 105 110 107 109 125 134
99 100 58 62 79 71 60 62 72 78 69 38 18 4 19 20 45 64 56 62 74 77 82 76 71 64 72 87 78 97 65 81 87 106 91 106 111 107 119 122 136 137 143
88 129 292 59 64 65 53 62 78 94 82 16 9 329 6 347 52 54 60 78 92 103 103 96 113 111 119 144 156 113 82 88 110 129 104 121 124 118 128 134 139 139 141
116 102 51 315 33 43 26 56 82 104 128 107 304 272 284 319 35 56 62 54 138 127 110 155 140 152 141 145 180 140 102 114 142 127 142 151 136 127 138 139 140 133 140
96 111 95 21 310 338 350 56 65 91 91 266 237 249 222 266 319 290 311 150 162 164 121 137 146 155 164 144 173 182 175 168 161 160 167 154 151 162 147 149 153 134 135
133 138 135 105 298 343 328 49 65 81 239 248 233 220 212 238 249 269 215 163 141 351 244 225 152 163 180 142 178 187 181 172 178 176 165 156 151 163 154 146 163 164 151
142 144 156 138 95 42 71 83 110 226 235 235 220 222 223 226 257 240 232 128 249 240 58 231 277 199 176 160 204 190 177 179 186 186 179 162 157 155 149 137 135 171 167
151 151 143 148 143 147 111 108 171 195 210 212 206 215 218 220 247 285 4 75 321 335 116 19 227 199 213 209 195 191 184 180 185 186 185 161 153 148 138 142 109 103 174
150 154 148 153 158 158 157 183 183 186 202 210 211 219 232 223 231 246 69 124 139 55 351 326 276 214 206 216 202 190 181 171 181 185 151 147 144 135 123 134 144 153 176
147 156 158 180 161 165 172 182 189 187 205 220 217 217 235 242 255 188 201 175 169 179 49 93 148 187 202 207 208 184 183 172 146 143 168 146 141 123 129 134 153 163 172
147 143 160 166 171 174 168 204 203 211 213 223 220 226 234 200 351 249 189 185 187 140 115 133 141 176 225 238 192 193 170 154 84 152 149 137 56 127 142 150 145 163 159
148 154 170 179 177 181 193 207 210 216 192 244 249 232 217 157 334 2 157 177 164 147 135 157 141 136 70 170 113 132 132 125 105 128 133 134 118 137 172 173 151 152 164
138 142 146 179 194 176 197 206 214 235 231 229 230 246 89 126 7 257 253 250 104 146 143 137 129 137 91 110 104 102 90 107 124 147 169 174 155 153 171 185 167 161 158
147 143 140 165 202 207 223 218 228 225 228 221 220 222 102 138 74 11 338 230 140 129 120 134 135 105 88 97 91 125 123 109 130 131 141 167 181 158 160 177 164 161 156
139 145 157 168 218 249 257 239 234 239 235 270 261 319 104 128 86 29 25 247 194 165 118 135 113 74 82 100 108 120 128 147 157 170 176 169 149 160 162 160 158 157 151
147 153 160 167 171 164 208 235 254 247 244 260 279 23 105 155 128 125 135 182 324 199 304 307 289 62 29 176 99 120 94 165 175 171 161 129 146 161 153 155 149 147 142
148 158 158 166 169 176 197 228 237 253 266 275 278 315 96 121 124 135 136 101 32 2 291 306 136 154 82 215 94 108 123 151 160 161 164 142 147 148 149 143 141 139 137
149 154 162 160 164 169 180 218 232 245 243 261 279 94 92 5 174 139 108 59 107 92 353 148 20 113 103 67 102 153 165 144 140 139 167 153 151 145 143 143 135 136 134
151 148 152 164 164 171 177 184 212 234 224 249 263 235 232 215 172 107 87 62 84 91 147 169 179 167 116 140 188 158 109 146 160 137 123 143 136 144 142 139 132 128 129
149 149 151 155 169 171 173 178 188 208 206 228 196 224 166 282 346 44 97 80 63 113 142 167 199 204 165 211 229 187 148 132 136 153 137 129 129 143 146 132 129 125 123